"read_dt","SO2 (ppb)","flags","PMT voltage (V)","lamp voltage (V)","lamp intensity (Hz)","internal temp (C)","react chamber temp (C)","sample flow (l/min)","pres (mmHg)","SO2 bkg (ppb)","SO2 coefficient"
2016-01-14 00:00:00,1773E-3,5C000400,-0724,0833,12111,024.6,045.3,0.262,779.1,01.14,0.508
2016-01-14 00:01:00,1714E-3,5C000400,-0724,0833,12190,024.6,045.3,0.262,779.1,01.14,0.508
2016-01-14 00:02:00,1928E-3,5C000400,-0724,0833,12015,024.6,045.3,0.262,779.0,01.14,0.508
2016-01-14 00:03:00,1854E-3,5C000400,-0724,0832,12220,024.6,045.4,0.262,779.0,01.14,0.508
2016-01-14 00:04:00,1789E-3,5C000400,-0724,0833,12220,024.6,045.3,0.262,779.0,01.14,0.508
2016-01-14 00:05:00,1804E-3,5C000400,-0724,0833,11961,024.6,045.3,0.262,779.0,01.14,0.508
2016-01-14 00:06:00,1814E-3,5C000400,-0724,0833,12297,024.6,045.4,0.262,779.0,01.14,0.508
2016-01-14 00:07:00,1804E-3,5C000400,-0724,0832,12120,024.6,045.3,0.262,779.0,01.14,0.508
2016-01-14 00:08:00,1661E-3,5C000400,-0724,0833,12054,024.6,045.3,0.262,779.0,01.14,0.508
2016-01-14 00:09:00,1814E-3,5C000400,-0724,0833,12073,024.6,045.3,0.262,778.9,01.14,0.508
2016-01-14 00:10:00,1777E-3,5C000400,-0724,0833,12199,024.6,045.3,0.262,778.9,01.14,0.508
2016-01-14 00:11:00,1741E-3,5C000400,-0724,0833,12138,024.6,045.3,0.262,778.9,01.14,0.508
2016-01-14 00:12:00,1777E-3,5C000400,-0724,0833,12239,024.6,045.3,0.262,778.9,01.14,0.508
2016-01-14 00:13:00,1860E-3,5C000400,-0724,0833,12217,024.6,045.3,0.262,778.9,01.14,0.508
2016-01-14 00:14:00,1814E-3,5C000400,-0724,0833,12148,024.6,045.3,0.262,778.9,01.14,0.508
2016-01-14 00:15:00,1870E-3,5C000400,-0724,0833,12312,024.6,045.3,0.262,778.9,01.14,0.508
2016-01-14 00:16:00,1802E-3,5C000400,-0724,0833,12022,024.6,045.4,0.262,778.9,01.14,0.508
2016-01-14 00:17:00,1829E-3,5C000400,-0724,0833,12262,024.6,045.3,0.262,778.9,01.14,0.508
2016-01-14 00:18:00,1914E-3,5C000400,-0724,0833,12106,024.6,045.3,0.262,778.9,01.14,0.508
2016-01-14 00:19:00,1734E-3,5C000400,-0724,0832,12114,024.6,045.3,0.262,778.9,01.14,0.508
2016-01-14 00:20:00,1796E-3,5C000400,-0724,0833,12183,024.6,045.3,0.262,778.9,01.14,0.508
2016-01-14 00:21:00,1817E-3,5C000400,-0724,0833,12220,024.6,045.3,0.262,778.9,01.14,0.508
2016-01-14 00:22:00,1903E-3,5C000400,-0724,0833,12343,024.6,045.3,0.262,778.9,01.14,0.508
2016-01-14 00:23:00,1867E-3,5C000400,-0724,0833,12139,024.6,045.3,0.262,779.0,01.14,0.508
2016-01-14 00:24:00,1875E-3,5C000400,-0724,0833,12121,024.6,045.3,0.262,779.0,01.14,0.508
2016-01-14 00:25:00,1817E-3,5C000400,-0724,0833,12011,024.6,045.3,0.262,779.0,01.14,0.508
2016-01-14 00:26:00,1744E-3,5C000400,-0724,0833,12175,024.6,045.3,0.262,779.0,01.14,0.508
2016-01-14 00:27:00,1931E-3,5C000400,-0724,0832,12040,024.5,045.3,0.262,779.0,01.14,0.508
2016-01-14 00:28:00,1788E-3,5C000400,-0724,0833,12201,024.5,045.3,0.262,779.0,01.14,0.508
2016-01-14 00:29:00,1762E-3,5C000400,-0724,0833,12249,024.5,045.3,0.262,779.0,01.14,0.508
2016-01-14 00:30:00,1874E-3,5C000400,-0724,0832,12199,024.5,045.3,0.262,778.9,01.14,0.508
2016-01-14 00:31:00,1761E-3,5C000400,-0724,0832,12142,024.5,045.3,0.262,778.9,01.14,0.508
2016-01-14 00:32:00,1835E-3,5C000400,-0724,0832,12172,024.6,045.3,0.262,779.0,01.14,0.508
2016-01-14 00:33:00,1833E-3,5C000400,-0724,0832,12154,024.5,045.4,0.262,779.0,01.14,0.508
2016-01-14 00:34:00,1760E-3,5C000400,-0724,0833,12057,024.5,045.3,0.262,779.0,01.14,0.508
2016-01-14 00:35:00,1941E-3,5C000400,-0724,0833,12159,024.5,045.3,0.262,778.9,01.14,0.508
2016-01-14 00:36:00,1858E-3,5C000400,-0724,0833,12221,024.5,045.3,0.262,778.9,01.14,0.508
2016-01-14 00:37:00,1891E-3,5C000400,-0724,0833,12303,024.5,045.3,0.262,778.9,01.14,0.508
2016-01-14 00:38:00,1755E-3,5C000400,-0724,0833,12082,024.5,045.3,0.262,778.9,01.14,0.508
2016-01-14 00:39:00,1780E-3,5C000400,-0724,0833,12069,024.5,045.3,0.262,778.9,01.14,0.508
2016-01-14 00:40:00,1824E-3,5C000400,-0724,0834,12213,024.5,045.3,0.262,778.9,01.14,0.508
2016-01-14 00:41:00,1893E-3,5C000400,-0724,0832,11973,024.5,045.3,0.262,778.9,01.14,0.508
2016-01-14 00:42:00,1829E-3,5C000400,-0724,0833,12313,024.5,045.3,0.263,778.9,01.14,0.508
2016-01-14 00:43:00,1807E-3,5C000400,-0724,0833,12101,024.5,045.3,0.263,778.9,01.14,0.508
2016-01-14 00:44:00,1765E-3,5C000400,-0724,0832,12110,024.5,045.3,0.263,778.9,01.14,0.508
2016-01-14 00:45:00,1957E-3,5C000400,-0724,0833,12057,024.5,045.3,0.262,779.0,01.14,0.508
2016-01-14 00:46:00,1863E-3,5C000400,-0724,0832,12128,024.5,045.3,0.262,779.0,01.14,0.508
2016-01-14 00:47:00,1812E-3,5C000400,-0724,0833,12085,024.5,045.3,0.262,779.0,01.14,0.508
2016-01-14 00:48:00,1810E-3,5C000400,-0724,0832,12166,024.5,045.3,0.262,779.0,01.14,0.508
2016-01-14 00:49:00,1815E-3,5C000400,-0724,0832,12207,024.5,045.3,0.262,779.0,01.14,0.508
2016-01-14 00:50:00,1648E-3,5C000400,-0724,0833,12226,024.5,045.3,0.262,779.0,01.14,0.508
2016-01-14 00:51:00,1878E-3,5C000400,-0724,0833,12264,024.5,045.3,0.262,779.0,01.14,0.508
2016-01-14 00:52:00,1767E-3,5C000400,-0724,0833,12151,024.5,045.3,0.263,779.0,01.14,0.508
2016-01-14 00:53:00,1846E-3,5C000400,-0724,0833,12290,024.5,045.3,0.262,779.0,01.14,0.508
2016-01-14 00:54:00,1835E-3,5C000400,-0724,0832,12217,024.5,045.3,0.262,779.0,01.14,0.508
2016-01-14 00:55:00,1860E-3,5C000400,-0724,0833,12198,024.5,045.3,0.262,779.0,01.14,0.508
2016-01-14 00:56:00,1731E-3,5C000400,-0724,0833,12166,024.5,045.3,0.263,779.0,01.14,0.508
2016-01-14 00:57:00,1845E-3,5C000400,-0724,0833,12131,024.5,045.3,0.262,779.0,01.14,0.508
2016-01-14 00:58:00,1780E-3,5C000400,-0724,0832,12150,024.5,045.3,0.262,779.0,01.14,0.508
2016-01-14 00:59:00,1866E-3,5C000400,-0724,0833,12318,024.5,045.3,0.262,779.0,01.14,0.508
2016-01-14 01:00:00,1878E-3,5C000400,-0724,0832,12126,024.5,045.3,0.262,779.0,01.14,0.508
2016-01-14 01:01:00,1901E-3,5C000400,-0724,0834,12327,024.5,045.3,0.263,779.0,01.14,0.508
2016-01-14 01:02:00,1767E-3,5C000400,-0724,0832,12120,024.5,045.3,0.262,779.0,01.14,0.508
2016-01-14 01:03:00,1885E-3,5C000400,-0724,0832,12151,024.5,045.3,0.262,779.0,01.14,0.508
2016-01-14 01:04:00,1887E-3,5C000400,-0724,0833,12156,024.5,045.3,0.262,779.0,01.14,0.508
2016-01-14 01:05:00,1839E-3,5C000400,-0724,0832,12182,024.5,045.3,0.263,778.9,01.14,0.508
2016-01-14 01:06:00,1763E-3,5C000400,-0724,0832,12172,024.4,045.3,0.262,778.9,01.14,0.508
2016-01-14 01:07:00,1787E-3,5C000400,-0724,0832,12278,024.4,045.3,0.262,779.0,01.14,0.508
2016-01-14 01:08:00,1711E-3,5C000400,-0724,0833,12086,024.4,045.3,0.262,779.0,01.14,0.508
2016-01-14 01:09:00,1826E-3,5C000400,-0724,0832,12314,024.4,045.3,0.262,779.0,01.14,0.508
2016-01-14 01:10:00,1727E-3,5C000400,-0724,0833,12140,024.4,045.3,0.263,779.0,01.14,0.508
2016-01-14 01:11:00,1974E-3,5C000400,-0724,0833,12205,024.5,045.3,0.262,778.9,01.14,0.508
2016-01-14 01:12:00,1803E-3,5C000400,-0724,0833,12081,024.4,045.4,0.262,778.9,01.14,0.508
2016-01-14 01:13:00,1817E-3,5C000400,-0724,0833,12156,024.4,045.3,0.262,778.9,01.14,0.508
2016-01-14 01:14:00,1739E-3,5C000400,-0724,0833,12247,024.4,045.3,0.263,778.8,01.14,0.508
2016-01-14 01:15:00,1817E-3,5C000400,-0724,0832,12175,024.4,045.3,0.262,778.9,01.14,0.508
2016-01-14 01:16:00,1796E-3,5C000400,-0724,0833,12082,024.4,045.3,0.262,778.9,01.14,0.508
2016-01-14 01:17:00,1797E-3,5C000400,-0724,0833,12106,024.4,045.3,0.262,778.9,01.14,0.508
2016-01-14 01:18:00,1844E-3,5C000400,-0724,0833,12098,024.4,045.3,0.263,778.9,01.14,0.508
2016-01-14 01:19:00,1845E-3,5C000400,-0724,0833,12169,024.4,045.3,0.263,778.9,01.14,0.508
2016-01-14 01:20:00,1847E-3,5C000400,-0724,0833,12206,024.4,045.3,0.262,778.9,01.14,0.508
2016-01-14 01:21:00,1711E-3,5C000400,-0724,0833,12252,024.4,045.3,0.262,778.9,01.14,0.508
2016-01-14 01:22:00,1759E-3,5C000400,-0724,0833,12189,024.4,045.3,0.262,778.9,01.14,0.508
2016-01-14 01:23:00,1706E-3,5C000400,-0724,0833,12134,024.4,045.3,0.263,778.9,01.14,0.508
2016-01-14 01:24:00,1845E-3,5C000400,-0724,0833,12170,024.4,045.3,0.262,778.9,01.14,0.508
2016-01-14 01:25:00,1769E-3,5C000400,-0724,0833,12136,024.4,045.3,0.262,778.9,01.14,0.508
2016-01-14 01:26:00,1803E-3,5C000400,-0724,0833,12191,024.4,045.3,0.262,778.8,01.14,0.508
2016-01-14 01:27:00,1827E-3,5C000400,-0724,0832,12224,024.4,045.3,0.263,778.8,01.14,0.508
2016-01-14 01:28:00,1858E-3,5C000400,-0724,0833,12111,024.4,045.3,0.263,778.8,01.14,0.508
2016-01-14 01:29:00,1786E-3,5C000400,-0724,0833,12228,024.4,045.3,0.262,778.8,01.14,0.508
2016-01-14 01:30:00,1963E-3,5C000400,-0724,0833,12172,024.4,045.3,0.262,778.8,01.14,0.508
2016-01-14 01:31:00,1796E-3,5C000400,-0724,0833,12076,024.4,045.3,0.263,778.8,01.14,0.508
2016-01-14 01:32:00,1941E-3,5C000400,-0724,0833,12233,024.4,045.3,0.263,778.8,01.14,0.508
2016-01-14 01:33:00,1809E-3,5C000400,-0724,0832,12166,024.4,045.3,0.263,778.8,01.14,0.508
2016-01-14 01:34:00,1763E-3,5C000400,-0724,0833,12187,024.4,045.3,0.262,778.8,01.14,0.508
2016-01-14 01:35:00,1714E-3,5C000400,-0724,0832,12225,024.4,045.3,0.262,778.8,01.14,0.508
2016-01-14 01:36:00,1837E-3,5C000400,-0724,0833,12130,024.4,045.3,0.263,778.8,01.14,0.508
2016-01-14 01:37:00,1907E-3,5C000400,-0724,0832,12266,024.3,045.3,0.263,778.8,01.14,0.508
2016-01-14 01:38:00,1818E-3,5C000400,-0724,0833,12311,024.4,045.3,0.262,778.8,01.14,0.508
2016-01-14 01:39:00,1723E-3,5C000400,-0724,0833,12278,024.4,045.3,0.262,778.8,01.14,0.508
2016-01-14 01:40:00,1810E-3,5C000400,-0724,0833,12209,024.3,045.3,0.263,778.7,01.14,0.508
2016-01-14 01:41:00,1971E-3,5C000400,-0724,0833,12277,024.3,045.3,0.263,778.7,01.14,0.508
2016-01-14 01:42:00,1775E-3,5C000400,-0724,0833,12186,024.3,045.3,0.263,778.6,01.14,0.508
2016-01-14 01:43:00,1800E-3,5C000400,-0724,0833,12144,024.4,045.3,0.263,778.6,01.14,0.508
2016-01-14 01:44:00,1810E-3,5C000400,-0724,0832,12205,024.4,045.3,0.262,778.6,01.14,0.508
2016-01-14 01:45:00,1746E-3,5C000400,-0724,0833,12082,024.4,045.3,0.263,778.7,01.14,0.508
2016-01-14 01:46:00,1764E-3,5C000400,-0724,0832,12016,024.4,045.3,0.263,778.7,01.14,0.508
2016-01-14 01:47:00,1859E-3,5C000400,-0724,0833,12141,024.3,045.3,0.263,778.7,01.14,0.508
2016-01-14 01:48:00,1750E-3,5C000400,-0724,0833,12156,024.3,045.3,0.262,778.7,01.14,0.508
2016-01-14 01:49:00,1748E-3,5C000400,-0724,0832,12120,024.3,045.3,0.263,778.7,01.14,0.508
2016-01-14 01:50:00,1652E-3,5C000400,-0724,0833,12228,024.3,045.3,0.263,778.7,01.14,0.508
2016-01-14 01:51:00,1755E-3,5C000400,-0724,0833,12166,024.3,045.3,0.263,778.8,01.14,0.508
2016-01-14 01:52:00,1836E-3,5C000400,-0724,0833,12093,024.3,045.4,0.262,778.8,01.14,0.508
2016-01-14 01:53:00,1857E-3,5C000400,-0724,0833,12161,024.3,045.3,0.262,778.8,01.14,0.508
2016-01-14 01:54:00,1731E-3,5C000400,-0724,0833,12019,024.3,045.3,0.263,778.8,01.14,0.508
2016-01-14 01:55:00,1820E-3,5C000400,-0724,0833,12021,024.3,045.3,0.263,778.7,01.14,0.508
2016-01-14 01:56:00,1853E-3,5C000400,-0724,0833,12309,024.3,045.4,0.263,778.8,01.14,0.508
2016-01-14 01:57:00,1821E-3,5C000400,-0724,0833,12235,024.3,045.3,0.262,778.8,01.14,0.508
2016-01-14 01:58:00,1857E-3,5C000400,-0724,0833,12145,024.3,045.3,0.263,778.7,01.14,0.508
2016-01-14 01:59:00,1839E-3,5C000400,-0724,0833,12197,024.3,045.3,0.263,778.7,01.14,0.508
2016-01-14 02:00:00,1821E-3,5C000400,-0724,0833,12221,024.3,045.3,0.263,778.7,01.14,0.508
2016-01-14 02:01:00,1828E-3,5C000400,-0724,0833,12117,024.3,045.3,0.262,778.7,01.14,0.508
2016-01-14 02:02:00,1870E-3,5C000400,-0724,0833,12198,024.3,045.3,0.263,778.7,01.14,0.508
2016-01-14 02:03:00,1868E-3,5C000400,-0724,0833,12222,024.3,045.3,0.263,778.7,01.14,0.508
2016-01-14 02:04:00,1999E-3,5C000400,-0724,0832,12154,024.3,045.3,0.263,778.7,01.14,0.508
2016-01-14 02:05:00,1809E-3,5C000400,-0724,0832,12006,024.3,045.3,0.262,778.7,01.14,0.508
2016-01-14 02:06:00,1793E-3,5C000400,-0724,0833,12247,024.3,045.3,0.263,778.7,01.14,0.508
2016-01-14 02:07:00,1919E-3,5C000400,-0724,0833,12226,024.3,045.3,0.263,778.7,01.14,0.508
2016-01-14 02:08:00,1770E-3,5C000400,-0724,0833,12135,024.3,045.3,0.263,778.6,01.14,0.508
2016-01-14 02:09:00,1898E-3,5C000400,-0724,0832,12072,024.3,045.3,0.262,778.7,01.14,0.508
2016-01-14 02:10:00,1759E-3,5C000400,-0724,0833,12246,024.3,045.3,0.263,778.7,01.14,0.508
2016-01-14 02:11:00,1789E-3,5C000400,-0724,0833,12177,024.3,045.3,0.263,778.7,01.14,0.508
2016-01-14 02:12:00,1916E-3,5C000400,-0724,0833,11999,024.3,045.3,0.263,778.7,01.14,0.508
2016-01-14 02:13:00,1826E-3,5C000400,-0724,0833,12176,024.3,045.3,0.262,778.7,01.14,0.508
2016-01-14 02:14:00,1840E-3,5C000400,-0724,0832,12124,024.2,045.3,0.263,778.7,01.14,0.508
2016-01-14 02:15:00,1804E-3,5C000400,-0724,0833,12276,024.3,045.3,0.263,778.7,01.14,0.508
2016-01-14 02:16:00,1904E-3,5C000400,-0724,0833,12210,024.3,045.3,0.263,778.7,01.14,0.508
2016-01-14 02:17:00,1758E-3,5C000400,-0724,0833,12130,024.2,045.3,0.262,778.6,01.14,0.508
2016-01-14 02:18:00,1863E-3,5C000400,-0724,0832,12081,024.2,045.3,0.263,778.6,01.14,0.508
2016-01-14 02:19:00,1969E-3,5C000400,-0724,0832,12182,024.2,045.3,0.263,778.7,01.14,0.508
2016-01-14 02:20:00,1809E-3,5C000400,-0724,0833,12149,024.2,045.3,0.263,778.7,01.14,0.508
2016-01-14 02:21:00,1830E-3,5C000400,-0724,0832,12272,024.2,045.3,0.262,778.7,01.14,0.508
2016-01-14 02:22:00,1687E-3,5C000400,-0724,0833,12111,024.2,045.3,0.263,778.7,01.14,0.508
2016-01-14 02:23:00,1679E-3,5C000400,-0724,0832,12131,024.2,045.3,0.263,778.7,01.14,0.508
2016-01-14 02:24:00,1893E-3,5C000400,-0724,0833,12158,024.2,045.3,0.263,778.6,01.14,0.508
2016-01-14 02:25:00,1792E-3,5C000400,-0724,0833,12221,024.3,045.3,0.262,778.6,01.14,0.508
2016-01-14 02:26:00,1941E-3,5C000400,-0724,0832,12180,024.2,045.3,0.263,778.7,01.14,0.508
2016-01-14 02:27:00,1831E-3,5C000400,-0724,0832,12216,024.2,045.3,0.263,778.7,01.14,0.508
2016-01-14 02:28:00,1778E-3,5C000400,-0724,0833,12247,024.2,045.3,0.263,778.7,01.14,0.508
2016-01-14 02:29:00,1921E-3,5C000400,-0724,0833,12092,024.2,045.3,0.263,778.7,01.14,0.508
2016-01-14 02:30:00,1763E-3,5C000400,-0724,0832,12113,024.2,045.3,0.263,778.7,01.14,0.508
2016-01-14 02:31:00,1862E-3,5C000400,-0724,0832,12089,024.2,045.3,0.263,778.7,01.14,0.508
2016-01-14 02:32:00,1707E-3,5C000400,-0724,0833,11982,024.2,045.3,0.263,778.7,01.14,0.508
2016-01-14 02:33:00,1871E-3,5C000400,-0724,0832,12036,024.2,045.3,0.263,778.7,01.14,0.508
2016-01-14 02:34:00,1811E-3,5C000400,-0724,0833,12146,024.2,045.3,0.263,778.7,01.14,0.508
2016-01-14 02:35:00,1866E-3,5C000400,-0724,0832,12182,024.2,045.3,0.262,778.7,01.14,0.508
2016-01-14 02:36:00,1959E-3,5C000400,-0724,0833,12032,024.2,045.3,0.263,778.7,01.14,0.508
2016-01-14 02:37:00,1812E-3,5C000400,-0724,0833,12063,024.2,045.3,0.263,778.7,01.14,0.508
2016-01-14 02:38:00,1864E-3,5C000400,-0724,0832,12277,024.2,045.3,0.263,778.7,01.14,0.508
2016-01-14 02:39:00,1834E-3,5C000400,-0724,0832,12154,024.2,045.3,0.262,778.7,01.14,0.508
2016-01-14 02:40:00,1984E-3,5C000400,-0724,0833,12238,024.2,045.3,0.263,778.7,01.14,0.508
2016-01-14 02:41:00,1789E-3,5C000400,-0724,0832,12196,024.2,045.3,0.263,778.7,01.14,0.508
2016-01-14 02:42:00,1837E-3,5C000400,-0724,0833,11898,024.2,045.3,0.263,778.6,01.14,0.508
2016-01-14 02:43:00,1870E-3,5C000400,-0724,0833,12277,024.2,045.3,0.263,778.6,01.14,0.508
2016-01-14 02:44:00,1787E-3,5C000400,-0724,0833,12213,024.2,045.3,0.263,778.7,01.14,0.508
2016-01-14 02:45:00,1834E-3,5C000400,-0724,0832,12226,024.2,045.4,0.263,778.7,01.14,0.508
2016-01-14 02:46:00,1733E-3,5C000400,-0724,0832,12152,024.2,045.3,0.263,778.7,01.14,0.508
2016-01-14 02:47:00,1886E-3,5C000400,-0724,0833,12130,024.2,045.3,0.262,778.7,01.14,0.508
2016-01-14 02:48:00,1782E-3,5C000400,-0724,0834,12208,024.2,045.3,0.263,778.7,01.14,0.508
2016-01-14 02:49:00,1812E-3,5C000400,-0724,0833,12041,024.2,045.3,0.263,778.6,01.14,0.508
2016-01-14 02:50:00,1782E-3,5C000400,-0724,0833,12176,024.2,045.3,0.263,778.6,01.14,0.508
2016-01-14 02:51:00,1720E-3,5C000400,-0724,0833,12163,024.2,045.3,0.262,778.6,01.14,0.508
2016-01-14 02:52:00,1774E-3,5C000400,-0724,0832,12054,024.2,045.3,0.263,778.6,01.14,0.508
2016-01-14 02:53:00,1856E-3,5C000400,-0724,0832,12131,024.1,045.3,0.263,778.6,01.14,0.508
2016-01-14 02:54:00,1833E-3,5C000400,-0724,0833,12117,024.2,045.3,0.262,778.6,01.14,0.508
2016-01-14 02:55:00,1836E-3,5C000400,-0724,0833,12088,024.2,045.3,0.263,778.6,01.14,0.508
2016-01-14 02:56:00,1856E-3,5C000400,-0724,0832,12190,024.2,045.3,0.263,778.6,01.14,0.508
2016-01-14 02:57:00,1738E-3,5C000400,-0724,0833,12267,024.2,045.3,0.263,778.6,01.14,0.508
2016-01-14 02:58:00,1990E-3,5C000400,-0724,0832,12135,024.1,045.3,0.263,778.6,01.14,0.508
2016-01-14 02:59:00,1857E-3,5C000400,-0724,0833,12095,024.2,045.3,0.263,778.5,01.14,0.508
2016-01-14 03:00:00,1760E-3,5C000400,-0724,0833,12161,024.1,045.3,0.263,778.5,01.14,0.508
2016-01-14 03:01:00,1764E-3,5C000400,-0724,0833,12001,024.2,045.3,0.262,778.5,01.14,0.508
2016-01-14 03:02:00,1933E-3,5C000400,-0724,0832,12314,024.1,045.3,0.263,778.5,01.14,0.508
2016-01-14 03:03:00,1796E-3,5C000400,-0724,0831,12209,024.1,045.3,0.263,778.6,01.14,0.508
2016-01-14 03:04:00,1861E-3,5C000400,-0724,0832,12352,024.1,045.3,0.263,778.6,01.14,0.508
2016-01-14 03:05:00,1932E-3,5C000400,-0724,0833,12027,024.1,045.3,0.263,778.6,01.14,0.508
2016-01-14 03:06:00,1914E-3,5C000400,-0724,0832,12267,024.1,045.3,0.263,778.6,01.14,0.508
2016-01-14 03:07:00,1771E-3,5C000400,-0724,0833,12234,024.1,045.3,0.263,778.6,01.14,0.508
2016-01-14 03:08:00,1937E-3,5C000400,-0724,0832,12166,024.1,045.3,0.263,778.6,01.14,0.508
2016-01-14 03:09:00,1881E-3,5C000400,-0724,0833,12286,024.1,045.3,0.263,778.6,01.14,0.508
2016-01-14 03:10:00,1875E-3,5C000400,-0724,0833,12117,024.1,045.3,0.263,778.6,01.14,0.508
2016-01-14 03:11:00,1811E-3,5C000400,-0724,0832,12177,024.1,045.3,0.262,778.6,01.14,0.508
2016-01-14 03:12:00,1882E-3,5C000400,-0724,0833,12274,024.1,045.3,0.263,778.6,01.14,0.508
2016-01-14 03:13:00,1897E-3,5C000400,-0724,0832,12187,024.1,045.3,0.263,778.6,01.14,0.508
2016-01-14 03:14:00,1860E-3,5C000400,-0724,0831,12078,024.1,045.3,0.263,778.6,01.14,0.508
2016-01-14 03:15:00,1939E-3,5C000400,-0724,0832,12175,024.1,045.3,0.263,778.6,01.14,0.508
2016-01-14 03:16:00,1830E-3,5C000400,-0724,0833,12167,024.1,045.3,0.263,778.7,01.14,0.508
2016-01-14 03:17:00,1798E-3,5C000400,-0724,0833,12193,024.1,045.3,0.263,778.6,01.14,0.508
2016-01-14 03:18:00,1825E-3,5C000400,-0724,0832,12070,024.1,045.3,0.263,778.6,01.14,0.508
2016-01-14 03:19:00,1848E-3,5C000400,-0724,0832,12126,024.1,045.3,0.263,778.6,01.14,0.508
2016-01-14 03:20:00,1734E-3,5C000400,-0724,0833,12221,024.1,045.3,0.263,778.6,01.14,0.508
2016-01-14 03:21:00,1859E-3,5C000400,-0724,0833,12190,024.1,045.3,0.263,778.7,01.14,0.508
2016-01-14 03:22:00,1864E-3,5C000400,-0724,0833,12164,024.1,045.3,0.263,778.7,01.14,0.508
2016-01-14 03:23:00,1917E-3,5C000400,-0724,0832,12212,024.1,045.3,0.263,778.7,01.14,0.508
2016-01-14 03:24:00,1956E-3,5C000400,-0724,0833,12111,024.1,045.3,0.263,778.7,01.14,0.508
2016-01-14 03:25:00,1847E-3,5C000400,-0724,0832,12071,024.1,045.3,0.263,778.6,01.14,0.508
2016-01-14 03:26:00,1779E-3,5C000400,-0724,0832,12136,024.1,045.3,0.263,778.6,01.14,0.508
2016-01-14 03:27:00,1811E-3,5C000400,-0724,0833,12227,024.1,045.3,0.263,778.6,01.14,0.508
2016-01-14 03:28:00,1887E-3,5C000400,-0724,0833,12265,024.1,045.3,0.263,778.6,01.14,0.508
2016-01-14 03:29:00,1728E-3,5C000400,-0724,0832,12115,024.1,045.3,0.263,778.6,01.14,0.508
2016-01-14 03:30:00,1753E-3,5C000400,-0724,0833,12124,024.1,045.3,0.263,778.5,01.14,0.508
2016-01-14 03:31:00,1817E-3,5C000400,-0724,0833,12111,024.1,045.3,0.263,778.6,01.14,0.508
2016-01-14 03:32:00,1820E-3,5C000400,-0724,0832,12194,024.1,045.3,0.263,778.6,01.14,0.508
2016-01-14 03:33:00,1921E-3,5C000400,-0724,0832,12138,024.1,045.3,0.263,778.6,01.14,0.508
2016-01-14 03:34:00,1964E-3,5C000400,-0724,0833,11884,024.1,045.3,0.263,778.6,01.14,0.508
2016-01-14 03:35:00,1776E-3,5C000400,-0724,0833,12184,024.0,045.3,0.263,778.6,01.14,0.508
2016-01-14 03:36:00,1710E-3,5C000400,-0724,0833,12102,024.0,045.3,0.263,778.6,01.14,0.508
2016-01-14 03:37:00,1891E-3,5C000400,-0724,0833,12258,024.0,045.3,0.263,778.6,01.14,0.508
2016-01-14 03:38:00,1813E-3,5C000400,-0724,0833,12200,024.1,045.3,0.263,778.5,01.14,0.508
2016-01-14 03:39:00,1853E-3,5C000400,-0724,0833,12277,024.0,045.3,0.263,778.5,01.14,0.508
2016-01-14 03:40:00,1802E-3,5C000400,-0724,0833,12042,024.0,045.3,0.263,778.5,01.14,0.508
2016-01-14 03:41:00,1792E-3,5C000400,-0724,0832,12115,024.0,045.3,0.264,778.5,01.14,0.508
2016-01-14 03:42:00,1763E-3,5C000400,-0724,0833,12152,024.0,045.4,0.263,778.4,01.14,0.508
2016-01-14 03:43:00,1806E-3,5C000400,-0724,0833,12209,024.0,045.3,0.263,778.4,01.14,0.508
2016-01-14 03:44:00,1896E-3,5C000400,-0724,0833,12266,024.0,045.3,0.263,778.4,01.14,0.508
2016-01-14 03:45:00,1917E-3,5C000400,-0724,0833,12212,024.0,045.3,0.263,778.5,01.14,0.508
2016-01-14 03:46:00,1807E-3,5C000400,-0724,0832,12103,024.0,045.3,0.263,778.5,01.14,0.508
2016-01-14 03:47:00,1753E-3,5C000400,-0724,0833,12152,024.0,045.3,0.263,778.5,01.14,0.508
2016-01-14 03:48:00,1825E-3,5C000400,-0724,0833,12025,024.0,045.3,0.263,778.5,01.14,0.508
2016-01-14 03:49:00,1739E-3,5C000400,-0724,0833,12145,024.0,045.3,0.263,778.5,01.14,0.508
2016-01-14 03:50:00,1855E-3,5C000400,-0724,0832,12108,024.0,045.3,0.263,778.5,01.14,0.508
2016-01-14 03:51:00,1821E-3,5C000400,-0724,0833,12085,024.0,045.3,0.263,778.5,01.14,0.508
2016-01-14 03:52:00,1811E-3,5C000400,-0724,0833,12050,024.0,045.3,0.263,778.5,01.14,0.508
2016-01-14 03:53:00,1813E-3,5C000400,-0724,0833,12237,024.0,045.3,0.263,778.5,01.14,0.508
2016-01-14 03:54:00,1849E-3,5C000400,-0724,0832,12139,024.0,045.3,0.263,778.5,01.14,0.508
2016-01-14 03:55:00,1803E-3,5C000400,-0724,0832,12110,024.0,045.3,0.263,778.5,01.14,0.508
2016-01-14 03:56:00,1716E-3,5C000400,-0724,0832,12332,024.0,045.3,0.263,778.5,01.14,0.508
2016-01-14 03:57:00,1789E-3,5C000400,-0724,0833,12129,024.0,045.3,0.263,778.5,01.14,0.508
2016-01-14 03:58:00,1779E-3,5C000400,-0724,0833,11988,024.0,045.3,0.263,778.5,01.14,0.508
2016-01-14 03:59:00,1859E-3,5C000400,-0724,0833,12232,024.0,045.3,0.263,778.5,01.14,0.508
2016-01-14 04:00:00,1695E-3,5C000400,-0724,0832,12140,024.0,045.3,0.263,778.5,01.14,0.508
2016-01-14 04:01:00,1769E-3,5C000400,-0724,0834,12099,024.0,045.3,0.263,778.5,01.14,0.508
2016-01-14 04:02:00,1870E-3,5C000400,-0724,0832,12031,024.0,045.3,0.263,778.5,01.14,0.508
2016-01-14 04:03:00,1838E-3,5C000400,-0724,0833,12110,024.0,045.3,0.263,778.5,01.14,0.508
2016-01-14 04:04:00,1790E-3,5C000400,-0724,0833,12092,024.0,045.3,0.263,778.5,01.14,0.508
2016-01-14 04:05:00,1793E-3,5C000400,-0724,0833,12158,024.0,045.3,0.263,778.5,01.14,0.508
2016-01-14 04:06:00,1729E-3,5C000400,-0724,0833,12107,024.0,045.3,0.263,778.5,01.14,0.508
2016-01-14 04:07:00,1820E-3,5C000400,-0724,0833,12173,024.0,045.3,0.263,778.5,01.14,0.508
2016-01-14 04:08:00,1776E-3,5C000400,-0724,0833,12096,024.0,045.3,0.263,778.5,01.14,0.508
2016-01-14 04:09:00,1810E-3,5C000400,-0724,0833,12071,024.0,045.3,0.263,778.5,01.14,0.508
2016-01-14 04:10:00,1858E-3,5C000400,-0724,0832,12188,024.0,045.3,0.263,778.5,01.14,0.508
2016-01-14 04:11:00,1845E-3,5C000400,-0724,0832,12121,024.0,045.3,0.263,778.5,01.14,0.508
2016-01-14 04:12:00,1741E-3,5C000400,-0724,0832,12219,023.9,045.3,0.263,778.5,01.14,0.508
2016-01-14 04:13:00,1827E-3,5C000400,-0724,0833,12207,024.0,045.3,0.263,778.5,01.14,0.508
2016-01-14 04:14:00,1799E-3,5C000400,-0724,0833,12213,023.9,045.3,0.263,778.5,01.14,0.508
2016-01-14 04:15:00,1765E-3,5C000400,-0724,0833,12131,023.9,045.3,0.263,778.5,01.14,0.508
2016-01-14 04:16:00,1722E-3,5C000400,-0724,0833,12067,023.9,045.3,0.263,778.5,01.14,0.508
2016-01-14 04:17:00,1625E-3,5C000400,-0724,0833,12275,023.9,045.3,0.263,778.5,01.14,0.508
2016-01-14 04:18:00,1792E-3,5C000400,-0724,0833,12286,023.9,045.3,0.263,778.5,01.14,0.508
2016-01-14 04:19:00,1833E-3,5C000400,-0724,0832,12160,023.9,045.3,0.263,778.5,01.14,0.508
2016-01-14 04:20:00,1789E-3,5C000400,-0724,0833,12176,023.9,045.3,0.263,778.5,01.14,0.508